{"data":{"norad_id":48379,"intl_designator":"2021-038AC","name":"STARLINK-2612","alt_names":[],"object_type":"PAYLOAD","status":"ACTIVE","operator":null,"country":"US","launch_date":"2021-05-04","launch_site_code":"AFETR","launch_vehicle":null,"mission":null,"orbit_class":"UNKNOWN","rcs_meters":null,"size_class":null,"mass_kg":null,"dimensions":null,"purposes":["comms"],"wikipedia_slug":null,"has_3d_model":false,"image_url":null,"decayed_at":null,"tle_current":{"epoch":"2026-09-19T05:34:14.426688Z","epoch_age_seconds":143283,"freshness":"FRESH","line1":"1 48379U 21038AC  26262.23211142 -.00000728  00000+0 -11692-4 0  9990","line2":"2 48379  53.1624 165.0379 0001060  77.4089 282.7031 15.31698670296913","mean_motion":15.3169867,"eccentricity":0.000106,"inclination_deg":53.1624,"raan_deg":165.0379,"arg_perigee_deg":77.4089,"mean_anomaly_deg":282.7031,"bstar":-1.1692e-5,"rev_number":29691,"period_min":94.013269594339,"perigee_km":470.01797850756,"apogee_km":471.46994127106,"semimajor_km":6848.8809598893,"source":"CELESTRAK","updated_at":"2026-09-20T09:00:38.943740Z"}}}